Regional Weather Roundup
Issued by NWS Grand Forks, ND

Home | Current Version | Previous Version | Graphics & Text | Print | Product List | Glossary On
Versions: 1 2 3 4 5 6 7 8 9 10 11 12 13 14 15 16 17 18 19 20 21 22 23 24 25 26 27 28 29 30 31 32 33 34 35 36 37 38 39 40 41 42 43 44 45 46 47 48 49 50
000
ASUS43 KFGF 280731
RWRFGF
PRAIRIE TO PINES  WEATHER ROUNDUP
NATIONAL WEATHER SERVICE EASTERN NORTH DAKOTA/GRAND FORKS ND
100 AM CST SAT FEB 28 2015

 **SATELLITE DATA USED TO AUGMENT SKY COVER AT AUTOMATED STATIONS**
 *****  WEATHER ACROSS EASTERN NORTH DAKOTA  *****

CITY           SKY/WX    TMP DP  RH WIND       PRES   REMARKS
GRAND FORKS    PTCLDY     3  -4  72 S12       30.30F WCI -13
GRAND FRKS AFB PTCLDY     3  -4  71 S10       30.28F WCI -12
GRAND FRKS NWS   N/A      3 N/A N/A S12         N/A  WCI -13
DEVILS LAKE    PTCLDY     3  -6  66 SE5       30.18F WCI  -6
FARGO          PTCLDY     8  -2  63 S14       30.35F WCI  -8
WAHPETON ARPT  SUNNY      5  -2  72 SE10      30.37S WCI -10
$$

 ***** WEATHER ACROSS CENTRAL AND WESTERN NORTH DAKOTA  *****

CITY           SKY/WX    TMP DP  RH WIND       PRES   REMARKS
BISMARCK       MOCLDY     9   0  67 SE9       30.13F WCI  -4
MINOT          CLOUDY    15   2  56 S21G30    30.06F WCI  -2
JAMESTOWN      PTCLDY     4  -3  73 S16       30.21F WCI -15
MINOT AFB      CLOUDY    15   5  67 SW16      30.07F WCI  -1
GARRISON         N/A     11   2  67 S8        30.07F WCI  -1
WILLISTON      PTCLDY     5   2  87 NE3       30.04S
DICKINSON      PTCLDY    11   3  70 S10       29.98F WCI  -3
HETTINGER      PTCLDY    10   2  69 SE5       30.01F WCI   2
$$

 *****  OTHER AIRPORT OBSERVATIONS IN OUR AREA  *****

CITY           SKY/WX    TMP DP  RH WIND       PRES   REMARKS
WALHALLA         N/A      9   0  66 SW8       30.24S WCI  -4
GRAFTON AIRPOR NOT AVBL
VALLEY CITY AR FAIR       1  -2  85 S12       30.25F WCI -15
CANDO          FAIR       0  -4  85 SE8       30.17F WCI -15
CAVALIER APRT  FAIR       0  -2  92 S12       30.26F WCI -18
GWINNER        SUNNY      5   0  78 S6        30.30F WCI  -6
SHEYENNE NWR     N/A      1  -6  72 S7        29.95  WCI -12
ROLLA          FAIR       1  -2  85 S10       30.13F WCI -14
 ***** THE ABOVE OBSERVATIONS ARE NON NWS ARE NOT QUALITY
       CONTROLLED AND MAY MIS-REPORT RAIN FOR SNOW...
$$

  *****  WEATHER ACROSS NORTHERN MINNESOTA  *****

CITY           SKY/WX    TMP DP  RH WIND       PRES   REMARKS
FLAG ISLAND    PTCLDY    -2  -8  78 SE6       30.28S WCI -14
WARROAD        PTCLDY     3  -2  78 SW9       30.30S WCI -11
ROSEAU         PTCLDY     1  -6  71 S7        30.30S WCI -11
HALLOCK        MOCLDY     0  -6  78 S13       30.29F WCI -18
THF RVR FALLS  PTCLDY     1   1 100 S8        30.30F WCI -12
BAUDETTE       PTCLDY    -1  -7  75 S7        30.30F WCI -14
WASKISH        FAIR       3  -4  72 CALM      30.33S
CROOKSTON      PTCLDY     3  -2  78 S14       30.34S WCI -15
STEPHEN NDAWN    N/A      3  -2  78 S13         N/A  WCI -14
GREENBUSH NDAW   N/A      7   0  72 MISG        N/A
$$
  *****  WEATHER ACROSS CENTRAL AND WEST MINNESOTA  *****

CITY           SKY/WX    TMP DP  RH WIND       PRES   REMARKS
FOSSTON        FAIR       3  -4  72 S15       30.33S WCI -15
BEMIDJI        PTCLDY     0  -6  78 CALM      30.33S
PARK RAPIDS    PTCLDY    -1  -7  75 S6        30.35S WCI -13
ELBOW LAKE     FAIR       3  -3  76 S13       30.38S WCI -14
WADENA         CLEAR     -2  -8  78 S3        30.37S
DETROIT LAKES  CLEAR      3  -4  72 S7        30.35F WCI  -9
MOORHEAD       PTCLDY     7   1  78 S13       30.36S WCI  -9
FERGUS FALLS   FAIR       3  -4  72 S9        30.42S WCI -11
MORRIS MN      CLEAR      0  -6  78 SE9       30.39S WCI -16
STAPLES        CLEAR     -2  -6  84 S3        30.39S
$$
  *****  WEATHER ELSEWHERE ACROSS MINNESOTA  *****

CITY           SKY/WX    TMP DP  RH WIND       PRES   REMARKS
DULUTH         CLEAR      5  -6  60 W12       30.39S WCI -11
INTRNTL FALLS  PTCLDY    -9 -16  71 CALM      30.33S
ELY            CLEAR     -2 -11  65 SW3       30.36R
CLOQUET        CLEAR      1  -8  66 SW6       30.41S WCI -10
WHEATON        CLEAR      1  -6  71 SE14      30.39F WCI -17
BRAINERD       CLEAR      1  -5  75 S5        30.41F WCI  -9
HIBBING        CLEAR    -14 -20  74 CALM      30.37S
ALEXANDRIA     CLEAR      3  -3  76 S10       30.39F WCI -12
SAINT CLOUD    CLEAR      1  -4  79 S6        30.47S WCI -10
MINNEAPOLIS    CLEAR      4  -3  73 S6        30.53F WCI  -7
$$

  *****  WEATHER ACROSS SOUTH DAKOTA  *****

CITY           SKY/WX    TMP DP  RH WIND       PRES   REMARKS
SIOUX FALLS    CLEAR      5  -2  72 S9        30.41S WCI  -9
BROOKINGS      NOT AVBL
WATERTOWN      CLEAR      1  -4  79 S12       30.32F WCI -16
HURON          CLEAR      8   1  73 S13       30.33F WCI  -8
SISSETON         N/A      1  -4  79 SE7       30.34F WCI -12
ABERDEEN       CLEAR      9   1  70 S17       30.30F WCI  -9
MITCHELL       CLEAR      9   2  73 S12       30.36F WCI  -6
PIERRE         CLEAR     13   0  56 SE12      30.19F WCI  -1
MOBRIDGE       PTCLDY    11   0  61 SE10      30.13F WCI  -3
RAPID CITY     PTCLDY    11   6  81 SE9       30.01S WCI  -2
$$

  *****  SOME WEATHER IN NEARBY STATES *****

CITY           SKY/WX    TMP DP  RH WIND       PRES   REMARKS
GLASGOW MT     PTCLDY     9   0  67 NW10      30.11R WCI  -5
GREAT FALLS MT FLURRIES  15  11  83 CALM      30.10R
CHEYENNE WY    MOCLDY     2  -3  80 SW6       29.81F WCI  -9
SCOTTSBLUFF NE CLEAR     11   5  77 SE8       30.00F WCI  -1
OMAHA NE       CLEAR      9   1  70 SE6       30.52S WCI  -1
DES MOINES IA  CLEAR      5  -3  69 SE6       30.58S WCI  -6
DAVENPORT IA   PTCLDY    -4 -10  75 CALM      30.65S
CHICAGO IL     CLEAR      2  -6  69 W6        30.66S WCI  -9
EAU CLAIRE WI  FAIR       0  -6  76 S5        30.55R WCI -10
LA CROSSE WI   CLEAR     -1  -7  75 SE5       30.61F WCI -11
$$

  *****  SOME NATIONAL WEATHER *****

CITY           SKY/WX    TMP DP  RH WIND       PRES   REMARKS
LA GUARDIA NY  CLEAR     19  -1  41 N14       30.65R WCI   6
RALEIGH NC     CLEAR     28  21  75 NE9       30.60R WCI  19
ATLANTA GA     PTCLDY    32  20  61 N5        30.45R
NEW ORLEANS LA MOCLDY    45  31  58 NE10      30.39F
OKLAHOMA CITY  FLURRIES  19  12  74 E6        30.42F WCI  11
ALBUQUERQUE NM LGT SNOW  21  18  88 N9        29.89F FOG     WCI  11
SALT LAKE CITY PTCLDY    32  23  69 SE7       29.69S
LOS ANGELES CA PTCLDY    57  50  77 W16G22    29.75F
BOISE ID       CLOUDY    41  30  65 CALM      29.66S
SEATTLE WA     MOCLDY    44  38  79 N6        29.92R
$$

*** WEATHER ACROSS MANITOBA...SASKATCHEWAN AND ONTARIO ***
                ***ONTARIO***

CITY           SKY/WX    TMP DP  RH WIND       PRES   REMARKS
GERALDTON      PTCLDY     7  -9  47 W10       30.22R WCI  -8
THUNDER BAY    PTCLDY    -6 -15  65 W6        30.37R WCI -18
SIOUX LOOKOUT  PTCLDY     3  -6  66 SW7       30.24S WCI  -9
TORONTO        CLEAR      1  -4  78 W6        30.65R WCI -10
BIG TROUT LK   FLURRIES   7   3  85 W6        30.03S WCI  -3
PICKLE LAKE    NOT AVBL
DRYDEN         CLOUDY     5  -2  72 SW12      30.25R WCI -11
KENORA         PTCLDY     1  -4  78 SW8       30.25S WCI -12
$$
                *** MANITOBA***

CITY           SKY/WX    TMP DP  RH WIND       PRES   REMARKS
BRANDON        MOCLDY    -9 -13  84 N2        30.16F
DAUPHIN        CLEAR      1  -4  78 SW5       30.16F WCI  -8
ISLAND LAKE    MOCLDY     7  -2  66 SW5       30.06F WCI  -2
PILOT MOUND      N/A     -2  -6  84 S8          N/A  WCI -17
THE PAS        CLOUDY     9  -2  61 W6        30.12S WCI  -1
THOMPSON       FLURRIES  10   3  72 SW7       30.01F WCI   0
WINNIPEG       MOCLDY     3  -4  72 S16       30.25F WCI -16
LYNN LAKE      FLURRIES   9   3  78 W8        29.97F WCI  -4
CHURCHILL      CRYSTALS   1  -2  85 SW10      29.85F WCI -14
GILLAM         FLURRIES   9   1  72 W8        29.97F WCI  -4
$$
                ***SASKATCHEWAN***

CITY           SKY/WX    TMP DP  RH WIND       PRES   REMARKS
ESTEVAN        PTCLDY     0  -6  78 N8        30.07R WCI -15
KINDERSLEY     FLURRIES   7   1  78 NW5       30.16S WCI  -2
LLOYDMINSTER   CLEAR     -4  -8  84 W13       30.13S WCI -23
PRINCE ALBERT  PTCLDY    -9 -13  84 W5        30.15S WCI -21
REGINA         PTCLDY   -13 -18  77 W3        30.12S
YORKTON        CLEAR     -6  -9  84 NW7       30.11F WCI -20
N. BATTLEFORD  CLEAR     -8  -9  92 W3        30.18S
LA RONGE       CLEAR      1  -4  78 SW7       30.11F WCI -11
SASKATOON      PTCLDY    -4  -8  84 NW10      30.17F WCI -21
SWIFT CURRENT  LGT SNOW   5   1  85 NW12      30.09S WCI -11
$$
NOTE: THESE ARE AUTOMATED STATIONS WITH LIMITED QUALITY CONTROL
      "FAIR" INDICATES FEW OR NO CLOUDS BELOW 12,000 FEET WITH NO
      SIGNIFICANT WEATHER AND/OR OBSTRUCTIONS TO VISIBILITY.
      SKY/WX - SKY CONDITION AND SIGNIFICANT WEATHER.
      TMP - AIR TEMPERATURE.    DP   - DEWPOINT TEMPERATURE.
      RH  - RELATIVE HUMIDITY.  PRES - PRESSURE.
      HX  - HEAT INDEX.         WCI  - WIND CHILL INDEX.
$


USA.gov is the U.S. government's official web portal to all federal, state and local government web resources and services.